Regional Weather Roundup
Issued by NWS State College, PA

Home | Current Version | Previous Version | Text Only | Print | Product List | Glossary On
Versions: 1 2 3 4 5 6 7 8 9 10 11 12 13 14 15 16 17 18 19 20 21 22 23 24 25 26 27 28 29 30 31 32 33 34 35 36 37 38 39 40 41 42 43 44 45 46 47 48 49 50
000
ASUS41 KCTP 271610
RWRCTP

REGIONAL WEATHER ROUNDUP
NATIONAL WEATHER SERVICE STATE COLLEGE PA
1200 PM EDT WED MAY 27 2015

Note: "fair" indicates few or no clouds below 12,000 feet with no
significant weather and/or obstructions to visibility.

* = STATION THAT DOES NOT REPORT PRECIPITATION /E.G. RAIN...SNOW...ETC/
    THUNDER OR FOG.

PAZ002>004-007>009-013>016-020>023-029>032-271700-
WESTERN PENNSYLVANIA

CITY           SKY/WX    TMP DP  RH WIND       PRES   REMARKS
ERIE           PTSUNNY   78  61  55 S13G25    30.06S
MEADVILLE      PTSUNNY   73  60  63 S13G20    30.11S
FRANKLIN*      CLOUDY    73  61  64 SW12G21   30.15S
NEW CASTLE     PTSUNNY   76  66  71 S5G16     30.14S
BEAVER COUNTY  CLOUDY    73  64  73 SW7       30.15S
BUTLER*        PTSUNNY   72  63  73 SW9G18    30.17F
PITTSBURGH INT PTSUNNY   73  63  70 SW10      30.15S
PITTSBURGH     PTSUNNY   72  61  68 S7        30.16S
INDIANA*       CLOUDY    70  66  88 SW10      30.22S
LATROBE        CLOUDY    72  68  88 S10       30.20R
WASHINGTON CO* PTSUNNY   73  64  73 SW9       30.18F
$$

PAZ004>006-010>012-017>019-024>028-033>037-041-042-045-046-049>053-271700-
CENTRAL PENNSYLVANIA

CITY           SKY/WX    TMP DP  RH WIND       PRES   REMARKS
BRADFORD       CLOUDY    69  60  73 SW13      30.15S
DUBOIS         CLOUDY    69  62  78 SW7       30.18R
CLEARFIELD     CLOUDY    69  64  84 SW8       30.18R
JOHNSTOWN      CLOUDY    67  63  87 SW9       30.22R
ALTOONA        LGT RAIN  69  65  86 S10       30.20R
STATE COLLEGE  PTSUNNY   70  66  88 W9        30.18R
WILLIAMSPORT   CLOUDY    80  65  59 W13       30.10S
SELINSGROVE    LGT RAIN  82  66  58 SW6       30.12F
FT INDIANTOWN  MOSUNNY   82  68  62 SW10      30.14S
CAPITAL CITY   MOSUNNY   83  68  60 S7        30.12F
HARRISBURG     PTSUNNY   85  68  56 S7        30.12F
YORK           PTSUNNY   81  69  67 SW12      30.15S
$$

PAZ038>040-043-044-047-048-054-055-060>062-067>071-271700-
EASTERN PENNSYLVANIA

CITY           SKY/WX    TMP DP  RH WIND       PRES   REMARKS
SCRANTON       MOSUNNY   82  64  54 SW7G21    30.13S
MOUNT POCONO   PTSUNNY   76  63  64 S13G18    30.20S
ALLENTOWN      CLOUDY    82  66  57 S10G20    30.14F
QUAKERTOWN*    PTSUNNY   81  68  65 SW7       30.17F
READING        CLOUDY    82  68  62 S9        30.14S
LANCASTER      CLOUDY    80  68  66 S8        30.15S
COATESVILLE    PTSUNNY   77  72  83 S6        30.18F
POTTSTOWN      MOSUNNY   80  69  69 SW7       30.17F
BLUE BELL      PTSUNNY   82  70  65 S8        30.16S
DOYLESTOWN     PTSUNNY   80  68  66 SW9       30.16S
WILLOW GROVE   NOT AVBL
NORTH PHILA    MOSUNNY   83  67  58 SW12      30.17F
PHILADELPHIA   MOSUNNY   83  69  62 SW9       30.16F
$$


USA.gov is the U.S. government's official web portal to all federal, state and local government web resources and services.